• Processing (Info)

  • MPEC 2023-F181 : 2023 FT5

    The following Minor Planet Electronic Circular may be linked-to from your own Web pages, but must not otherwise be redistributed electronically.

    A form allowing access to any MPEC is at the bottom of this page.


    Read MPEC 2023-F180 Read MPEC 2023-F182


    M.P.E.C. 2023-F181                               Issued 2023 March 28, 00:19 UT
    
         The Minor Planet Electronic Circulars contain information on unusual
             minor planets, routine data on comets and natural satellites,
             and occasional editorial announcements.  They are published
        on behalf of Division F of the International Astronomical Union by the
              Minor Planet Center, Smithsonian Astrophysical Observatory,
                              Cambridge, MA 02138, U.S.A.
    			  
                 Prepared using the Tamkin Foundation Computer Network
    
                                  MPC@CFA.HARVARD.EDU
                URL https://www.minorplanetcenter.net/    ISSN 1523-6714
    
                                    2023 FT5                                 
    
    
    Observations:
         K23F05T*1C2023 03 26.34058713 03 25.078-14 54 50.65         19.64GVEF181703
         K23F05T 1C2023 03 26.34583013 03 25.967-14 53 30.44         19.88GVEF181703
         K23F05T 1C2023 03 26.35106713 03 27.112-14 52 07.39         19.12GVEF181703
         K23F05T 1C2023 03 26.35631213 03 28.148-14 50 47.36         20.15GVEF181703
         K23F05T KC2023 03 26.40120413 03 36.626-14 39 08.10         19.62GVEF181I52
         K23F05T KC2023 03 26.40196613 03 36.738-14 38 56.26         19.84GVEF181I52
         K23F05T KC2023 03 26.40272013 03 36.911-14 38 44.92         19.77GVEF181I52
         K23F05T KC2023 03 26.40347613 03 37.066-14 38 33.43         19.16GVEF181I52
         K23F05T  C2023 03 26.40461913 03 41.277-14 38 02.04         19.75wUEF181F51
         K23F05T  C2023 03 26.42778613 03 45.636-14 32 02.53         19.88wUEF181F51
         K23F05T  C2023 03 26.43675713 03 47.312-14 29 43.16         20.43wUEF181F52
         K23F05T  C2023 03 26.44815713 03 49.443-14 26 46.93         19.69wUEF181F52
         K23F05T KC2023 03 26.45308913 03 52.44 -14 23 57.2          18.8 GVEF181474
         K23F05T KC2023 03 26.45370713 03 52.58 -14 23 47.5          19.0 GVEF181474
         K23F05T KC2023 03 26.45556113 03 52.95 -14 23 18.8          19.2 GVEF181474
         K23F05T KC2023 03 26.45617913 03 53.08 -14 23 09.4          19.2 GVEF181474
         K23F05T KC2023 03 26.98781713 05 51.089-12 05 34.40         19.0 GXEF181Y00
         K23F05T KC2023 03 26.99555313 05 52.623-12 03 34.51         19.8 GXEF181Y00
         K23F05T KC2023 03 27.00335013 05 54.156-12 01 33.79         19.5 GXEF181Y00
         K23F05T KC2023 03 27.06427 13 06 01.46 -11 47 14.8                VEF181204
         K23F05T HC2023 03 27.07471 13 06 03.48 -11 44 32.0          19.6 GVEF181204
         K23F05T KC2023 03 27.19535213 06 34.697-11 12 52.85         19.86GVEF181I52
         K23F05T KC2023 03 27.19586213 06 34.819-11 12 45.18         19.42GVEF181I52
         K23F05T KC2023 03 27.19638013 06 34.902-11 12 37.40         20.02GVEF181I52
         K23F05T |C2023 03 27.19758 13 06 32.34 -11 10 57.5          20.3 VuEF181807
         K23F05T |C2023 03 27.20238 13 06 33.26 -11 09 42.9          20.2 VuEF181807
         K23F05T |C2023 03 27.20718 13 06 34.16 -11 08 28.3          19.9 VuEF181807
         K23F05T KC2023 03 27.91734813 09 05.57 -08 05 50.7          19.6 GXEF181958
         K23F05T KC2023 03 27.92694213 09 07.30 -08 03 24.1          19.4 GXEF181958
         K23F05T KC2023 03 27.93649513 09 09.20 -08 00 55.7          19.4 GXEF181958
         K23F05T KC2023 03 27.94122013 09 09.97 -07 59 41.1          20.2 GXEF181I93
         K23F05T KC2023 03 27.94530613 09 10.76 -07 58 38.1          19.9 GXEF181I93
         K23F05T KC2023 03 27.94930013 09 11.52 -07 57 36.6          19.5 GXEF181I93
         K23F05T KC2023 03 27.96564813 09 13.50 -07 53 25.1          18.8 GVEF181L01
         K23F05T KC2023 03 27.96663913 09 13.71 -07 53 09.3          19.0 GVEF181L01
         K23F05T KC2023 03 27.96763013 09 13.91 -07 52 53.5          19.0 GVEF181L01
         K23F05T KC2023 03 27.96862213 09 14.08 -07 52 38.1          19.3 GVEF181L01
         K23F05T KC2023 03 27.96974013 09 14.33 -07 52 20.7          19.7 GVEF181L01
    
    Observer details:
    204 Schiaparelli Observatory.  Observer L. Buzzi.  0.84-m f/3.5 reflector +
        CCD.
    474 Mount John Observatory, Lake Tekapo.  Observers A. C. Gilmore, P. M.
        Kilmartin.  Measurer P. M. Kilmartin.  1.0-m f/7.7 reflector + CCD.
    703 Catalina Sky Survey.  Observer K. W. Wierzchos.  Measurers E. J.
        Christensen, D. Fay, J. B. Fazekas, D. C. Fuls, A. R. Gibbs, A. D. Grauer,
        H. Groeller, J. K. Hogan, R. A. Kowalski, S. M. Larson, G. J. Leonard, D.
        Rankin, R. L. Seaman, A. Serrano, F. C. Shelly, K. W. Wierzchos.  0.68-m
        Schmidt + 10K CCD.
    807 Cerro Tololo Observatory, La Serena.  Observers T. Linder, R. Holmes, L.
        Horn.  0.61-m f/6.5 Dall-Kirkham Astrograph + CCD.
    958 Observatoire de Dax.  Observers P. Dupouy, J. B. de Vanssay.  Measurer P.
        Dupouy.  0.43-m f/2.7 Reflector + CCD.
    F51 Pan-STARRS 1, Haleakala.  Observers J. Bulger, T. Lowe, A. Schultz, I.
        Smith.  Measurers K. Chambers, S. Chastel, T. de Boer, J. Fairlamb, H.
        Gao, M. Huber, C.-C. Lin, E. Magnier, Y. Ramanjooloo, R. Wainscoat, R.
        Weryk.  1.8-m Ritchey-Chretien + CCD.
    F52 Pan-STARRS 2, Haleakala.  Observers J. Bulger, T. Lowe, A. Schultz, I.
        Smith.  Measurers K. Chambers, S. Chastel, T. de Boer, J. Fairlamb, H.
        Gao, M. Huber, C.-C. Lin, E. Magnier, Y. Ramanjooloo, R. Wainscoat, R.
        Weryk.  1.8-m Ritchey-Chretien + CCD.
    I52 Steward Observatory, Mt. Lemmon Station.  Observer R. A. Kowalski.
        Measurers E. J. Christensen, D. Fay, J. B. Fazekas, D. C. Fuls, A. R.
        Gibbs, A. D. Grauer, H. Groeller, J. K. Hogan, R. A. Kowalski, S. M.
        Larson, G. J. Leonard, D. Rankin, R. L. Seaman, A. Serrano, F. C. Shelly,
        K. W. Wierzchos.  1.0-m prime focus + CCD.
    I93 St Pardon de Conques.  Observer F. Losse.  0.40-m f/3.7 reflector + CCD.
    L01 Visnjan Observatory, Tican.  Observer K. Korlevic.  1.0-m f/2.9 reflector
        + CCD.
    Y00 SONEAR Observatory, Oliveira.  Observer C. Jacques.  0.45-m f/2.9
        reflector + CCD.
    
    Orbital elements:
    2023 FT5                                                 Earth MOID = 0.1008 AU
    Epoch 2023 Feb. 25.0 TT = JDT 2460000.5                 Veres                   
    M   2.66964              (2000.0)            P               Q                  
    n   0.63852548     Peri.  326.26437     -0.89243691     -0.44696366             
    a   1.3356230      Node   187.95172     +0.44468799     -0.89442562             
    e   0.1989923      Incl.   26.38625     -0.07621646     +0.01504308             
    P   1.54           H   23.75          G   0.15           U   8                  
    Residuals in seconds of arc
    230326 703  0.5+  0.6+    230326 474  0.0   0.1-    230327 807  0.3+  0.0
    230326 703  1.1-  0.7-    230326 474  0.0   0.2-    230327 958  0.1+  0.3-
    230326 703  1.1+  1.0+    230326 474  0.1+  0.3-    230327 958  0.9-  2.1-
    230326 703  1.6+  0.5-    230326 Y00  0.3+  0.4-    230327 958  0.8+  1.6-
    230326 I52  0.1+  0.1+    230326 Y00  0.3+  0.4-    230327 I93  0.4+  0.7+
    230326 I52  0.4-  0.1+    230327 Y00  0.2+  0.6-    230327 I93  0.8+  0.4+
    230326 I52  0.0   0.4-    230327 204 (0.2+  1.1-)   230327 I93  1.1+  0.1+
    230326 I52  0.2+  0.6-    230327 204 (0.5+  1.4-)   230327 L01  0.3-  0.3-
    230326 F51  0.1+  0.2-    230327 I52  0.3-  0.2-    230327 L01  0.2+  0.2+
    230326 F51  0.0   0.1+    230327 I52  0.0   0.5-    230327 L01  0.5+  0.6+
    230326 F52  0.1-  0.3+    230327 I52  0.3-  0.7-    230327 L01  0.3+  0.6+
    230326 F52 (0.0   0.5-)   230327 807  0.6-  0.4+    230327 L01  1.0+  0.7+
    230326 474  0.2-  0.3-    230327 807  0.0   0.2+
    
    Ephemeris:
    2023 FT5                 a,e,i = 1.34, 0.20, 26                  q = 1.0698
    Date    TT    R. A. (2000) Decl.     Delta      r    Elong.  Phase     V
    2023 02 26    10 36 18.4 -69 04 32   0.2516  1.0705   101.9    64.8    23.2
    ...
    2023 03 13    12 01 06.5 -56 02 52   0.1547  1.0802   120.4    52.5    21.8
    ...
    2023 03 21    12 41 32.1 -36 02 32   0.1154  1.0898   142.6    33.8    20.7
    ...
    2023 03 27    13 05 48.8 -12 02 58   0.1044  1.0988   165.2    13.4    19.8
    2023 03 28    13 09 19.7 -07 43 38   0.1047  1.1005   167.8    11.0    19.7
    2023 03 29    13 12 41.7 -03 27 34   0.1058  1.1022   168.9    10.0    19.7
    ...
    2023 04 04    13 29 59.3 +18 34 53   0.1245  1.1131   154.1    23.1    20.6
    ...
    2023 04 12    13 46 24.4 +35 53 44   0.1707  1.1298   135.3    38.6    21.7
    ...
    2023 04 27    14 04 03.3 +47 45 12   0.2794  1.1662   118.6    49.2    23.2
    
    M. P. C. Staff               (C) Copyright 2023 MPC           M.P.E.C. 2023-F181
    


    Read MPEC 2023-F180 Read MPEC 2023-F182


    MPEC number:

    Enter an MPEC number in one of the following forms:

    • 1997-B01 (the full form)
    • J97B01 (the packed version of the full form)
    • B01 (the abbreviated form)